Escanaba, MI

5:59 PM EDT on May 26, 2017 (GMT -0400)
Delta County

Weather History for KESC - December, 2013

Change the Weather History Date:

Monday, December 30, 2013

  Actual Average Record
Temperature  
Mean Temperature -2 °F -  
Max Temperature 6 °F 25 °F 41 °F (2002)
Min Temperature -9 °F 9 °F -23 °F (1976)
Degree Days  
Heating Degree Days 66    
Moisture  
Dew Point -10 °F    
Average Humidity 66    
Maximum Humidity 84    
Minimum Humidity 48    
Precipitation  
Precipitation 0.00 in - - ()
Sea Level Pressure  
Sea Level Pressure 30.13 in    
Wind  
Wind Speed 10 mph (West)    
Max Wind Speed 14 mph    
Max Gust Speed 20 mph    
Visibility 10 miles    
Events      
Averages and records for this station are not official NWS values.
T = Trace of Precipitation, MM = Missing Value Source: NWS Daily Summary

Daily Weather History Graph

Daily Weather History Graph

Search for Another Location

Airport or City:

Trip Planner

Search our weather history database for the weather conditions in past years. The results will help you decide how hot, cold, wet, or windy it might be!

Date:

Astronomy

Dec. 30, 2013 Rise Set
Actual Time 8:29 AM EST 5:13 PM EST
Civil Twilight 7:54 AM EST 5:47 PM EST
Nautical Twilight 7:17 AM EST 6:25 PM EST
Astronomical Twilight 6:41 AM EST 7:01 PM EST
Moon 6:15 AM EST (12/30) 3:48 PM EST (12/30)
Length of Visible Light 9h 52m
Length of Day
8h 43m
Waning Crescent, 5% of the Moon is Illuminated
Dec 30
Waning Crescent
Jan 1
New
Jan 7
First Quarter
Jan 15
Full
Jan 24
Last Quarter

Hourly Weather History & Observations

Time (EST) Temp. Windchill Dew Point Humidity Pressure Visibility Wind Dir Wind Speed Gust Speed Precip Events Conditions
12:15 AM -0.4 °F -17.6 °F -7.6 °F 72% 30.10 in 10.0 mi West 11.5 mph - N/A   Clear
12:35 AM -0.4 °F -19.2 °F -7.6 °F 72% 30.11 in 10.0 mi West 13.8 mph - N/A   Clear
12:55 AM -2.2 °F -20.7 °F -7.6 °F 78% 30.11 in 10.0 mi West 12.7 mph - N/A   Clear
1:15 AM -2.2 °F -19.9 °F -9.4 °F 71% 30.11 in 10.0 mi West 11.5 mph - N/A   Clear
1:35 AM -2.2 °F -20.7 °F -9.4 °F 71% 30.10 in 10.0 mi West 12.7 mph - N/A   Clear
1:55 AM -4.0 °F -21.2 °F -9.4 °F 78% 30.11 in 10.0 mi West 10.4 mph - N/A   Clear
2:15 AM -4.0 °F -23.0 °F -11.2 °F 71% 30.11 in 10.0 mi West 12.7 mph - N/A   Clear
2:35 AM -4.0 °F -23.0 °F -9.4 °F 78% 30.12 in 10.0 mi West 12.7 mph - N/A   Clear
2:55 AM -4.0 °F -23.0 °F -11.2 °F 71% 30.13 in 10.0 mi West 12.7 mph - N/A   Clear
3:15 AM -5.8 °F -25.2 °F -11.2 °F 77% 30.13 in 10.0 mi West 12.7 mph - N/A   Clear
3:35 AM -5.8 °F -26.0 °F -11.2 °F 77% 30.13 in 10.0 mi WNW 13.8 mph 19.6 mph N/A   Clear
3:55 AM -5.8 °F -24.4 °F - N/A% 30.13 in 10.0 mi WNW 11.5 mph - N/A   Clear
4:15 AM -5.8 °F -23.4 °F -11.2 °F 77% 30.13 in 10.0 mi WNW 10.4 mph 17.3 mph N/A   Clear
4:35 AM -5.8 °F -23.4 °F -13.0 °F 71% 30.13 in 10.0 mi WNW 10.4 mph - N/A   Clear
4:55 AM -5.8 °F -21.2 °F -11.2 °F 77% 30.13 in 10.0 mi WNW 8.1 mph - N/A   Clear
5:15 AM -5.8 °F -22.4 °F -11.2 °F 77% 30.14 in 10.0 mi WNW 9.2 mph - N/A   Clear
5:35 AM -5.8 °F -24.4 °F -13.0 °F 71% 30.13 in 10.0 mi WNW 11.5 mph - N/A   Clear
5:55 AM -5.8 °F -24.4 °F -13.0 °F 71% 30.14 in 10.0 mi WNW 11.5 mph - N/A   Clear
6:15 AM -5.8 °F -22.4 °F -11.2 °F 77% 30.14 in 10.0 mi WNW 9.2 mph - N/A   Clear
6:35 AM -7.6 °F -26.6 °F -13.0 °F 77% 30.15 in 10.0 mi WNW 11.5 mph - N/A   Clear
6:55 AM -7.6 °F -24.6 °F -14.8 °F 71% 30.15 in 10.0 mi WNW 9.2 mph - N/A   Clear
7:15 AM -7.6 °F -23.4 °F -13.0 °F 77% 30.16 in 10.0 mi WNW 8.1 mph - N/A   Clear
7:35 AM -7.6 °F -24.6 °F -14.8 °F 71% 30.16 in 10.0 mi WNW 9.2 mph - N/A   Clear
7:55 AM -7.6 °F -24.6 °F -14.8 °F 71% 30.16 in 10.0 mi WNW 9.2 mph - N/A   Clear
8:15 AM -7.6 °F -23.4 °F -13.0 °F 77% 30.17 in 10.0 mi WNW 8.1 mph - N/A   Clear
8:35 AM -9.4 °F -26.8 °F -14.8 °F 77% 30.18 in 10.0 mi WNW 9.2 mph - N/A   Clear
8:55 AM -7.6 °F -23.4 °F -14.8 °F 71% 30.18 in 10.0 mi WNW 8.1 mph - N/A   Clear
9:15 AM -7.6 °F -23.4 °F -13.0 °F 77% 30.19 in 10.0 mi WNW 8.1 mph - N/A   Clear
9:35 AM -7.6 °F -23.4 °F -11.2 °F 84% 30.19 in 10.0 mi WNW 8.1 mph - N/A   Clear
9:55 AM -5.8 °F -19.9 °F -11.2 °F 77% 30.20 in 10.0 mi WNW 6.9 mph - N/A   Clear
10:15 AM -5.8 °F -21.2 °F -13.0 °F 71% 30.20 in 10.0 mi WNW 8.1 mph - N/A   Clear
10:35 AM -4.0 °F -17.8 °F -9.4 °F 78% 30.21 in 10.0 mi West 6.9 mph - N/A   Clear
10:55 AM -2.2 °F -15.6 °F -9.4 °F 71% 30.21 in 10.0 mi West 6.9 mph - N/A   Clear
11:15 AM -0.4 °F -13.4 °F -9.4 °F 66% 30.21 in 10.0 mi West 6.9 mph - N/A   Clear
11:35 AM 1.4 °F -11.3 °F -5.8 °F 72% 30.21 in 10.0 mi West 6.9 mph - N/A   Clear
11:55 AM 1.4 °F -11.3 °F -7.6 °F 66% 30.21 in 10.0 mi West 6.9 mph - N/A   Clear
12:15 PM 3.2 °F -10.3 °F -7.6 °F 61% 30.20 in 10.0 mi WNW 8.1 mph - N/A   Clear
12:35 PM 3.2 °F -10.3 °F -5.8 °F 66% 30.20 in 10.0 mi WSW 8.1 mph - N/A   Clear
12:55 PM 5.0 °F -8.1 °F -7.6 °F 56% 30.18 in 10.0 mi West 8.1 mph - N/A   Clear
1:15 PM 5.0 °F -8.1 °F -7.6 °F 56% 30.17 in 10.0 mi West 8.1 mph - N/A   Clear
1:35 PM 6.8 °F -4.8 °F -5.8 °F 56% 30.16 in 10.0 mi WSW 6.9 mph - N/A   Clear
1:55 PM 6.8 °F -5.9 °F -5.8 °F 56% 30.15 in 10.0 mi West 8.1 mph - N/A   Clear
2:15 PM 6.8 °F -5.9 °F -7.6 °F 52% 30.14 in 10.0 mi WSW 8.1 mph - N/A   Scattered Clouds
2:35 PM 6.8 °F -6.9 °F -5.8 °F 56% 30.13 in 10.0 mi West 9.2 mph - N/A   Mostly Cloudy
2:55 PM 6.8 °F -4.8 °F -7.6 °F 52% 30.13 in 10.0 mi West 6.9 mph - N/A   Mostly Cloudy
3:15 PM 6.8 °F -3.5 °F -5.8 °F 56% 30.12 in 10.0 mi SW 5.8 mph - N/A   Overcast
3:35 PM 6.8 °F -3.5 °F -7.6 °F 52% 30.12 in 10.0 mi WSW 5.8 mph - N/A   Overcast
3:55 PM 6.8 °F -5.9 °F -5.8 °F 56% 30.13 in 10.0 mi WSW 8.1 mph - N/A   Overcast
4:15 PM 6.8 °F -4.8 °F -7.6 °F 52% 30.13 in 10.0 mi SW 6.9 mph - N/A   Scattered Clouds
4:35 PM 6.8 °F -3.5 °F -7.6 °F 52% 30.12 in 10.0 mi SW 5.8 mph - N/A   Mostly Cloudy
4:55 PM 6.8 °F -2.0 °F -7.6 °F 52% 30.12 in 10.0 mi WSW 4.6 mph - N/A   Overcast
5:15 PM 6.8 °F -2.0 °F -9.4 °F 48% 30.12 in 10.0 mi SW 4.6 mph - N/A   Overcast
5:35 PM 5.0 °F -2.1 °F -9.4 °F 52% 30.12 in 10.0 mi WSW 3.5 mph - N/A   Scattered Clouds
5:55 PM 3.2 °F -9.1 °F -9.4 °F 56% 30.11 in 10.0 mi SW 6.9 mph - N/A   Partly Cloudy
6:15 PM 3.2 °F -7.8 °F -7.6 °F 61% 30.11 in 10.0 mi WSW 5.8 mph - N/A   Partly Cloudy
6:35 PM 3.2 °F -6.2 °F -9.4 °F 56% 30.11 in 10.0 mi WSW 4.6 mph - N/A   Clear
6:55 PM 1.4 °F -8.3 °F -9.4 °F 61% 30.11 in 10.0 mi West 4.6 mph - N/A   Clear
7:15 PM 1.4 °F -8.3 °F -9.4 °F 61% 30.10 in 10.0 mi WSW 4.6 mph - N/A   Partly Cloudy
7:35 PM -0.4 °F -12.0 °F -9.4 °F 66% 30.10 in 10.0 mi WSW 5.8 mph - N/A   Scattered Clouds
7:55 PM 1.4 °F -11.3 °F -9.4 °F 61% 30.10 in 10.0 mi West 6.9 mph - N/A   Scattered Clouds
8:15 PM 1.4 °F -11.3 °F -9.4 °F 61% 30.10 in 10.0 mi West 6.9 mph - N/A   Scattered Clouds
8:35 PM 1.4 °F -13.5 °F -7.6 °F 66% 30.10 in 10.0 mi West 9.2 mph - N/A   Mostly Cloudy
8:55 PM 1.4 °F -11.3 °F -11.2 °F 56% 30.10 in 10.0 mi WNW 6.9 mph - N/A   Mostly Cloudy
9:15 PM 1.4 °F -11.3 °F -7.6 °F 66% 30.09 in 10.0 mi WNW 6.9 mph - N/A   Overcast
9:35 PM 1.4 °F -11.3 °F -9.4 °F 61% 30.09 in 10.0 mi WNW 6.9 mph - N/A   Overcast
9:55 PM 1.4 °F -12.5 °F -9.4 °F 61% 30.08 in 10.0 mi WNW 8.1 mph - N/A   Overcast
10:15 PM 1.4 °F -13.5 °F -9.4 °F 61% 30.07 in 10.0 mi WNW 9.2 mph - N/A   Mostly Cloudy
10:35 PM 1.4 °F -12.5 °F -7.6 °F 66% 30.07 in 10.0 mi WNW 8.1 mph - N/A   Overcast
10:55 PM 1.4 °F -13.5 °F -9.4 °F 61% 30.06 in 10.0 mi WNW 9.2 mph - N/A   Overcast
11:15 PM 1.4 °F -14.5 °F -7.6 °F 66% 30.05 in 10.0 mi WNW 10.4 mph - N/A   Overcast
11:35 PM 1.4 °F -11.3 °F -7.6 °F 66% 30.05 in 10.0 mi WNW 6.9 mph - N/A   Overcast
11:55 PM 1.4 °F -13.5 °F -9.4 °F 61% 30.05 in 10.0 mi WNW 9.2 mph - N/A   Overcast